When you browse on this site, cookies collect data to enhance your experience and personalize the content and advertising you see.
Visit our Privacy Policy to learn more. By continuing to use the site, you agree to this use of cookies and data.
  • In Hungary
  • List of Countries
  • For 7 days
  • Water Temperature
  • Satellite Maps
  • Weather Map
  • News
  • Weather Widgets
  • user-avatar
    Login

    Hourly Weather Hirosima

    Today, 22 January, Tuesday

    Time Temperature Precipitation Wind Pressure Humidity
    00:00 +4°C° 0 mm 4 mps 762 mmHg 77%
    01:00 +4°C° 0 mm 4 mps 762 mmHg 77%
    02:00 +3°C° 0 mm 5 mps 762 mmHg 76%
    03:00 +5°C° 0 mm 4 mps 761 mmHg 76%
    04:00 +4°C° 0 mm 4 mps 761 mmHg 74%
    05:00 +4°C° 0 mm 4 mps 761 mmHg 72%
    06:00 +4°C° 0 mm 4 mps 761 mmHg 70%
    07:00 +5°C° 0 mm 3 mps 762 mmHg 68%
    08:00 +5°C° 0 mm 3 mps 762 mmHg 66%
    09:00 +7°C° 0 mm 3 mps 762 mmHg 64%
    10:00 +8°C° 0 mm 3 mps 762 mmHg 58%
    11:00 +9°C° 0 mm 3 mps 762 mmHg 53%
    12:00 +11°C° 0 mm 3 mps 762 mmHg 47%
    13:00 +11°C° 0 mm 3 mps 761 mmHg 46%
    14:00 +12°C° 0 mm 2 mps 761 mmHg 44%
    15:00 +12°C° 0 mm 2 mps 761 mmHg 43%
    16:00 +10°C° 0 mm 2 mps 761 mmHg 49%
    17:00 +8°C° 0 mm 2 mps 761 mmHg 55%
    18:00 +7°C° 0 mm 2 mps 762 mmHg 61%
    19:00 +6°C° 0 mm 2 mps 762 mmHg 64%
    20:00 +5°C° 0 mm 2 mps 762 mmHg 67%
    21:00 +5°C° 0 mm 2 mps 762 mmHg 71%
    22:00 +5°C° 0 mm 2 mps 762 mmHg 71%
    23:00 +4°C° 0 mm 2 mps 762 mmHg 72%

    Tomorrow, 23 January, Wednesday

    Time Temperature Precipitation Wind Pressure Humidity
    00:00 +4°C° 0 mm 2 mps 762 mmHg 73%
    01:00 +5°C° 0 mm 2 mps 762 mmHg 75%
    02:00 +4°C° 0 mm 3 mps 762 mmHg 76%
    03:00 +4°C° 0 mm 3 mps 761 mmHg 78%
    04:00 +5°C° 0 mm 4 mps 761 mmHg 79%
    05:00 +5°C° 0 mm 4 mps 761 mmHg 79%
    06:00 +5°C° 0 mm 4 mps 761 mmHg 80%
    07:00 +6°C° 0 mm 5 mps 761 mmHg 75%
    08:00 +7°C° 0 mm 5 mps 762 mmHg 70%
    09:00 +8°C° 0 mm 6 mps 762 mmHg 65%
    10:00 +9°C° 0 mm 6 mps 762 mmHg 61%
    11:00 +10°C° 0 mm 6 mps 761 mmHg 56%
    12:00 +11°C° 0 mm 7 mps 761 mmHg 52%
    13:00 +11°C° 0 mm 7 mps 761 mmHg 53%
    14:00 +11°C° 0 mm 7 mps 761 mmHg 55%
    15:00 +11°C° 0 mm 7 mps 760 mmHg 57%
    16:00 +10°C° 0 mm 6 mps 761 mmHg 61%
    17:00 +9°C° 0 mm 5 mps 761 mmHg 66%
    18:00 +8°C° 0 mm 5 mps 761 mmHg 71%
    19:00 +7°C° 0 mm 4 mps 761 mmHg 72%
    20:00 +7°C° 0 mm 3 mps 762 mmHg 73%
    21:00 +7°C° 0 mm 3 mps 762 mmHg 74%
    22:00 +5°C° 0 mm 3 mps 762 mmHg 72%
    23:00 +5°C° 0 mm 3 mps 762 mmHg 71%

    Day after tomorrow, 24 January, Thursday

    Time Temperature Precipitation Wind Pressure Humidity
    00:00 +5°C° 0 mm 3 mps 762 mmHg 69%
    01:00 +4°C° 0 mm 3 mps 762 mmHg 70%
    02:00 +5°C° 0 mm 2 mps 762 mmHg 72%
    03:00 +5°C° 0 mm 2 mps 762 mmHg 73%
    04:00 +5°C° 0 mm 2 mps 762 mmHg 76%
    05:00 +5°C° 0 mm 2 mps 762 mmHg 79%
    06:00 +6°C° 0 mm 1 mps 762 mmHg 82%
    07:00 +7°C° 0 mm 1 mps 763 mmHg 79%
    08:00 +8°C° 0 mm 1 mps 763 mmHg 77%
    09:00 +8°C° 0 mm 1 mps 764 mmHg 74%
    10:00 +9°C° 0 mm 1 mps 764 mmHg 68%
    11:00 +10°C° 0 mm 1 mps 764 mmHg 63%
    12:00 +11°C° 0 mm 1 mps 764 mmHg 58%
    13:00 +11°C° 0 mm 1 mps 764 mmHg 57%
    14:00 +11°C° 0 mm 1 mps 763 mmHg 55%
    15:00 +12°C° 0 mm 2 mps 763 mmHg 54%
    16:00 +9°C° 0 mm 2 mps 763 mmHg 60%
    17:00 +9°C° 0 mm 1 mps 764 mmHg 66%
    18:00 +8°C° 0 mm 1 mps 764 mmHg 72%
    19:00 +7°C° 0 mm 1 mps 764 mmHg 74%
    20:00 +7°C° 0 mm 1 mps 764 mmHg 76%
    21:00 +6°C° 0 mm 1 mps 765 mmHg 78%
    22:00 +6°C° 0 mm 1 mps 764 mmHg 78%
    23:00 +6°C° 0 mm 1 mps 764 mmHg 78%

    25 January, Friday

    Time Temperature Precipitation Wind Pressure Humidity
    00:00 +5°C° 0 mm 1 mps 764 mmHg 78%
    01:00 +5°C° 0 mm 1 mps 764 mmHg 78%
    02:00 +5°C° 0 mm 1 mps 764 mmHg 78%
    03:00 +5°C° 0 mm 1 mps 764 mmHg 79%
    04:00 +5°C° 0 mm 1 mps 764 mmHg 80%
    05:00 +5°C° 0 mm 1 mps 764 mmHg 82%
    06:00 +4°C° 0 mm 1 mps 763 mmHg 84%
    07:00 +6°C° 0 mm 1 mps 763 mmHg 78%
    08:00 +7°C° 0 mm 1 mps 764 mmHg 73%
    09:00 +8°C° 0 mm 1 mps 764 mmHg 67%
    10:00 +8°C° 0 mm 2 mps 763 mmHg 58%
    11:00 +10°C° 0 mm 3 mps 763 mmHg 49%
    12:00 +11°C° 0 mm 4 mps 763 mmHg 41%
    13:00 +11°C° 0 mm 4 mps 762 mmHg 40%
    14:00 +10°C° 0 mm 5 mps 761 mmHg 40%
    15:00 +10°C° 0 mm 5 mps 761 mmHg 40%
    16:00 +8°C° 0 mm 5 mps 761 mmHg 45%
    17:00 +7°C° 0 mm 5 mps 761 mmHg 50%
    18:00 +5°C° 0 mm 5 mps 761 mmHg 54%
    19:00 +5°C° 0 mm 4 mps 761 mmHg 56%
    20:00 +4°C° 0 mm 4 mps 761 mmHg 57%
    21:00 +4°C° 0 mm 4 mps 761 mmHg 58%
    22:00 +3°C° 0 mm 5 mps 761 mmHg 60%
    23:00 +3°C° 0 mm 5 mps 761 mmHg 61%

    26 January, Saturday

    Time Temperature Precipitation Wind Pressure Humidity
    00:00 +2°C° 0 mm 6 mps 761 mmHg 62%
    01:00 +2°C° 0 mm 6 mps 760 mmHg 64%
    02:00 +2°C° 0 mm 5 mps 760 mmHg 65%
    03:00 +2°C° 0 mm 5 mps 760 mmHg 67%
    04:00 +2°C° 0 mm 5 mps 760 mmHg 69%
    05:00 +2°C° 0 mm 5 mps 760 mmHg 70%
    06:00 +2°C° 0 mm 5 mps 760 mmHg 72%
    07:00 +2°C° 0.3 mm 5 mps 760 mmHg 72%
    08:00 +2°C° 0.3 mm 6 mps 761 mmHg 72%
    09:00 +3°C° 0.3 mm 6 mps 761 mmHg 71%
    10:00 +3°C° 0.3 mm 6 mps 761 mmHg 70%
    11:00 +3°C° 0.3 mm 6 mps 761 mmHg 69%
    12:00 +3°C° 0.3 mm 6 mps 761 mmHg 68%
    13:00 +3°C° 0.3 mm 6 mps 761 mmHg 69%
    14:00 +2°C° 0.3 mm 5 mps 761 mmHg 69%
    15:00 +2°C° 0.3 mm 5 mps 761 mmHg 70%
    16:00 +2°C° 0.6 mm 5 mps 762 mmHg 73%
    17:00 +1°C° 0.6 mm 4 mps 762 mmHg 75%
    18:00 +1°C° 0.6 mm 4 mps 763 mmHg 78%
    19:00 0°C° 0.4 mm 4 mps 763 mmHg 77%
    20:00 0°C° 0.4 mm 4 mps 764 mmHg 76%
    21:00 0°C° 0.4 mm 4 mps 764 mmHg 75%
    22:00 0°C° 0.1 mm 4 mps 765 mmHg 75%
    23:00 0°C° 0.1 mm 4 mps 765 mmHg 74%

    27 January, Sunday

    Time Temperature Precipitation Wind Pressure Humidity
    00:00 -1°C° 0.1 mm 5 mps 765 mmHg 74%
    01:00 -1°C° 0 mm 4 mps 765 mmHg 74%
    02:00 0°C° 0 mm 4 mps 765 mmHg 75%
    03:00 0°C° 0 mm 4 mps 765 mmHg 75%
    04:00 0°C° 0 mm 4 mps 765 mmHg 75%
    05:00 0°C° 0 mm 4 mps 766 mmHg 75%
    06:00 0°C° 0 mm 4 mps 766 mmHg 76%
    07:00 +1°C° 0 mm 4 mps 766 mmHg 73%
    08:00 +3°C° 0 mm 4 mps 767 mmHg 70%
    09:00 +4°C° 0 mm 4 mps 768 mmHg 67%
    10:00 +5°C° 0.1 mm 4 mps 767 mmHg 65%
    11:00 +5°C° 0.1 mm 5 mps 767 mmHg 63%
    12:00 +6°C° 0.1 mm 5 mps 767 mmHg 61%
    13:00 +6°C° 0.1 mm 5 mps 767 mmHg 61%
    14:00 +6°C° 0.1 mm 5 mps 767 mmHg 60%
    15:00 +6°C° 0.1 mm 5 mps 767 mmHg 60%
    16:00 +5°C° 0 mm 4 mps 767 mmHg 65%
    17:00 +4°C° 0 mm 3 mps 767 mmHg 70%
    18:00 +3°C° 0 mm 2 mps 767 mmHg 76%
    19:00 +3°C° 0 mm 2 mps 767 mmHg 77%
    20:00 +2°C° 0 mm 2 mps 767 mmHg 79%
    21:00 +2°C° 0 mm 2 mps 767 mmHg 81%
    22:00 +2°C° 0 mm 2 mps 767 mmHg 80%
    23:00 +1°C° 0 mm 2 mps 767 mmHg 79%
    Show more